RUBIN 8/PSLV

导读 | 星芒AI

RUBIN 8 是一颗由印度设计的小型卫星,计划通过 PSLV(极地卫星运载火箭)发射升空。该卫星主要用于地球观测和通信实验,旨在支持印度在遥感和空间技术领域的应用。RUBIN 8 的发射将增强印度在小型卫星部署方面的能力,并促进相关科研与商业发展。此次任务展示了印度航天局在低成本、高效率发射方面的优势。

基本信息
目录编号:
32792
目录名称:
RUBIN 8/PSLV
国际标识:
2008-021K
轨道中心:
EARTH
卫星名称:
RUBIN 8/PSLV
卫星全名:
--
卫星状态:
在轨 (已飞行6493 天)
发射日期:
2008-04-28 UTC
国别 :
德国 (DE)
星等 :
--
轨道信息
数据来源 国际轨道数据
星历时间: 2026-02-06T07:38:00+0800
14小时前
查看轨道信息
半长轴: 6988.595km
偏心率: 0.0025461
轨道倾角: 98.142°
近地点辐角 43.577°
升交点赤经 35.594°
平近点角 316.745°
近地点: 592.664km
远地点: 628.252km
周期: 96.905分钟
每日圈数: 14.859971
详细信息
使用方式:
暂无
2D轨道图
3D轨道图
轨道高度分析图
轨道倾角分析图
轨道综合分析图
查看轨道综合分析图